Location: Huesca
(42.1318°N, 0.4078°W)
Time: 21:13:41
(UTC+02:00)

Envisat - Visible Passes

Search period start: 13 June 2024 00:00
Search period end: 23 June 2024 00:00
Orbit: 762 x 764 km, 98.3° (Epoch: 13 June)

Date Brightness Start Highest point End Pass type
(mag) Time Alt. Az. Time Alt. Az. Time Alt. Az.
13 Jun 3.0 05:22:12 10° NNE 05:27:19 86° ESE 05:32:23 10° SSW visible
14 Jun 4.2 04:45:07 10° NNE 04:49:52 38° E 04:54:33 10° SSE visible
15 Jun 5.3 04:08:52 10° NE 04:12:11 17° E 04:15:29 10° SE visible
15 Jun 3.2 05:46:32 10° N 05:51:30 56° WNW 05:56:26 10° SSW visible
16 Jun 3.3 05:09:07 10° NNE 05:14:10 66° ESE 05:19:12 10° S visible
17 Jun 4.6 04:32:14 10° NE 04:36:39 29° E 04:41:01 10° SSE visible
18 Jun 5.5 03:56:38 10° ENE 03:58:54 13° E 04:01:10 10° ESE visible
18 Jun 3.0 05:33:19 10° N 05:38:24 74° WNW 05:43:27 10° SSW visible
19 Jun 3.8 04:56:05 10° NNE 05:01:00 49° E 05:05:54 10° S visible
20 Jun 5.0 04:19:28 10° NE 04:23:24 22° E 04:27:18 10° SE visible
21 Jun 3.1 05:20:10 10° NNE 05:25:17 84° ESE 05:30:21 10° SSW visible
22 Jun 4.2 04:43:06 10° NNE 04:47:48 37° E 04:52:29 10° SSE visible
